Regional Weather Roundup
Issued by NWS Huntsville, AL

Home | Current Version | Previous Version | Text Only | Print | Product List | Glossary On
Versions: 1 2 3 4 5 6 7 8 9 10 11 12 13 14 15 16 17 18 19 20 21 22 23 24 25 26 27
000
ASUS44 KHUN 270510
RWRHUN

WEATHER ROUNDUP FOR THE TENNESSEE VALLEY
NATIONAL WEATHER SERVICE HUNTSVILLE AL
1200 AM CDT WED JUL 27 2016

ALZ001>004-270600-
NORTHWEST ALABAMA

CITY           SKY/WX    TMP DP  RH WIND       PRES   REMARKS
RUSSELLVILLE     N/A     79 N/A N/A MISG        N/A
SHOALS AIRPORT CLEAR     79  71  76 NW3       30.01S
SHOALS TVA RES   N/A     82 N/A N/A MISG        N/A
$$

ALZ005>007-016-270600-
NORTH CENTRAL ALABAMA

CITY           SKY/WX    TMP DP  RH WIND       PRES   REMARKS
CULLMAN AG STN   N/A     81 N/A N/A SW5         N/A
DECATUR AP     CLEAR     82  71  69 S10       30.01S
HUNTSVILLE AP  CLEAR     81  69  67 S5        30.01S
HUN NWS/UAH      N/A     83  68  60 S3          N/A
MERIDIANVILLE  CLEAR     77  64  65 CALM      30.02S
REDSTONE ARSN  CLEAR     79  72  79 S5        30.00F
VINEMONT AP    FAIR      79  72  79 S7        30.06F
$$

ALZ008>010-270600-
NORTHEAST ALABAMA

CITY           SKY/WX    TMP DP  RH WIND       PRES   REMARKS
ALBERTVILLE      N/A     79  77  94 S3        30.05S
FORT PAYNE     CLEAR     73  70  88 CALM      30.04F
SCOTTSBORO AP  CLEAR     81  72  74 SW3       30.03S
SCOTTSBORO HCN   N/A     77 N/A N/A MISG        N/A
VALLEY HEAD      N/A     75 N/A N/A MISG        N/A
$$

TNZ076-096-097-270600-
SOUTHEASTERN MIDDLE TENNESSEE

CITY           SKY/WX    TMP DP  RH WIND       PRES   REMARKS
TULLAHOMA      CLEAR     75  72  88 E3        30.04S
WINCHESTER     CLEAR     75  73  94 CALM      30.03F
$$

...SURROUNDING SITES...

CITY           SKY/WX    TMP DP  RH WIND       PRES   REMARKS
ATLANTA        PTCLDY    80  72  76 SW6       30.07S
ANNISTON       PTCLDY    80  72  76 W3        30.05S
BIRMINGHAM     CLEAR     80  73  79 S7        30.06S
CHATTANOOGA    CLEAR     81  72  74 CALM      30.02F
DALTON         CLEAR     75  73  94 CALM      30.04S
GADSDEN        CLEAR     79  74  84 CALM        N/A
GOLDEN TRNGL   MOCLDY    79  70  73 SE8       29.98S
HALEYVILLE     FAIR      78  72  81 S7        30.04F
JACKSON TN     CLOUDY    75  74  96 S3        29.97F
MEMPHIS        PTCLDY    85  72  65 CALM      29.95S HX  91
NASHVILLE      CLOUDY    76  73  91 S3        30.00S
OXFORD MS      FAIR      79  72  78 SE5       29.98F
ROME           CLEAR     79  70  74 CALM      30.04R
SAVANNAH       MOCLDY    79  72  78 CALM      29.98S
TUPELO         PTCLDY    83  71  67 SE6       29.97S
TUSCALOOSA     PTCLDY    78  75  90 S5        30.01S
$$

...GULF COAST WEATHER...

CITY           SKY/WX    TMP DP  RH WIND       PRES   REMARKS
GULFPORT       CLOUDY    80  72  76 SW7       30.01R
PASCAGOULA     MOCLDY    78  75  90 SW5       30.02R
MOBILE         CLOUDY    76  74  93 S3        30.04R
GULF SHORES    PTCLDY    81  73  77 SW9G17    30.04S
PENSACOLA      PTCLDY    82  72  71 SW9       30.04R
DESTIN         CLOUDY    84  78  82 SW8       30.05F HX  95
PANAMA CITY    CLOUDY    81  75  82 W9        30.08R
APPALACHICOLA  PTCLDY    77  77 100 CALM      30.08S
$$





USA.gov is the U.S. government's official web portal to all federal, state and local government web resources and services.